CST,Max TemperatureF,Mean TemperatureF,Min TemperatureF,Max Dew PointF,MeanDew PointF,Min DewpointF,Max Humidity, Mean Humidity, Min Humidity, Max Sea Level PressureIn, Mean Sea Level PressureIn, Min Sea Level PressureIn, Max VisibilityMiles, Mean VisibilityMiles, Min VisibilityMiles, Max Wind SpeedMPH, Mean Wind SpeedMPH, Max Gust SpeedMPH,PrecipitationIn, CloudCover, Events, WindDirDegrees
2014-1-1,12,9,6,7,3,1,83,75,66,30.34,30.27,30.21,10,5,1,20,13,22,T,8,Snow,37
2014-1-2,9,-1,-11,0,-5,-15,79,74,69,30.51,30.40,30.26,10,9,3,17,11,20,T,4,Snow,329
2014-1-3,24,5,-15,14,-2,-19,82,72,61,30.47,30.14,29.74,10,10,8,25,12,35,0.00,2,,170
2014-1-4,33,24,14,25,16,6,75,69,62,30.12,29.88,29.71,10,9,4,25,17,30,0.00,6,Snow,292
2014-1-5,14,1,-12,5,-9,-24,69,61,52,30.37,30.26,30.12,10,10,7,35,22,40,0.00,5,,332
2014-1-6,-8,-12,-17,-15,-22,-27,79,67,54,30.42,30.36,30.29,10,10,6,32,19,38,0.00,2,,293
2014-1-7,8,-1,-11,-3,-10,-18,79,71,62,30.34,30.29,30.19,10,10,10,13,6,14,0.00,3,,133
2014-1-8,9,2,-5,-2,-6,-9,79,71,63,30.53,30.45,30.24,10,10,9,9,4,10,0.00,0,,324
2014-1-9,23,10,-3,20,6,-9,92,80,67,30.51,30.29,30.04,10,7,2,12,7,14,T,6,,126
2014-1-10,34,29,23,34,29,21,100,94,88,30.06,29.72,29.48,6,1,0,15,8,20,0.01,8,Fog-Rain,156
2014-1-11,32,28,24,30,26,21,92,82,72,29.85,29.66,29.49,10,8,4,26,14,35,0.00,7,,285
2014-1-12,42,32,21,31,27,21,96,77,57,29.82,29.63,29.50,10,10,6,24,9,35,0.00,1,,175
2014-1-13,36,31,26,31,27,23,89,79,69,29.79,29.69,29.57,10,10,9,26,12,33,T,4,,276
2014-1-14,36,25,14,32,19,8,82,75,67,30.09,29.83,29.55,10,8,2,41,24,54,0.06,7,Rain-Snow,285
2014-1-15,25,16,7,14,7,1,80,71,62,30.21,30.05,29.69,10,10,7,25,13,32,T,4,Snow,259
2014-1-16,35,21,7,29,16,-2,82,70,58,29.89,29.67,29.52,10,8,1,35,20,45,T,8,Snow,288
2014-1-17,16,10,4,6,2,-2,80,71,61,30.07,30.00,29.89,10,10,3,24,14,31,T,3,Snow,302
2014-1-18,23,14,4,18,12,2,87,77,67,30.00,29.73,29.56,10,6,1,20,10,26,0.01,6,Snow,126
2014-1-19,42,26,9,30,22,6,84,71,57,29.96,29.73,29.59,10,10,9,25,14,32,0.00,1,,245
2014-1-20,36,24,12,28,21,7,88,79,69,30.25,29.98,29.73,10,5,1,30,12,35,0.03,5,Snow,336
2014-1-21,12,3,-7,3,-7,-16,76,66,56,30.46,30.33,30.16,10,9,3,26,10,33,T,3,Snow,317
2014-1-22,14,5,-4,9,0,-12,84,75,65,30.45,30.14,29.97,10,5,0,31,17,40,T,6,Snow,310
2014-1-23,1,-4,-10,-8,-13,-18,83,73,62,30.76,30.67,30.46,10,10,10,21,13,24,0.00,0,Snow,298
2014-1-24,35,14,-7,32,11,-12,89,70,51,30.53,29.89,29.52,10,9,2,30,18,38,T,6,Snow,221
2014-1-25,36,22,7,30,7,-3,89,69,49,29.95,29.79,29.53,10,9,1,36,19,41,T,3,Snow,292
2014-1-26,36,18,0,27,13,-9,88,75,62,30.11,29.65,29.38,10,5,0,43,23,54,0.06,7,Snow,313
2014-1-27,0,-6,-12,-6,-13,-18,72,62,52,30.53,30.32,30.08,10,9,1,37,19,43,0.00,4,Snow,309
2014-1-28,11,-1,-13,-3,-10,-18,78,68,57,30.53,30.41,30.29,10,10,10,18,8,23,0.00,0,,266
2014-1-29,32,14,-4,11,2,-11,71,57,42,30.27,30.08,29.80,10,10,10,24,12,30,0.00,0,,200
2014-1-30,37,23,8,27,17,1,85,66,47,30.03,29.71,29.55,10,8,0,35,20,46,0.01,4,Snow,241
2014-1-31,11,7,3,2,-3,-7,76,67,58,30.24,30.15,30.01,10,9,2,17,8,21,T,3,Snow,1